TimeCDT,TemperatureF,Dew PointF,Humidity,Sea Level PressureIn,VisibilityMPH,Wind Direction,Wind SpeedMPH,Gust SpeedMPH,PrecipitationIn,Events,Conditions,WindDirDegrees,DateUTC
12:53 AM,75.0,73.0,94,29.94,7.0,Calm,Calm,-,N/A,,Clear,0,2013-06-14 05:53:00
1:53 AM,78.1,73.0,84,29.90,10.0,WSW,4.6,-,N/A,,Clear,250,2013-06-14 06:53:00
2:53 AM,78.1,72.0,81,29.88,10.0,Calm,Calm,-,N/A,,Clear,0,2013-06-14 07:53:00
3:53 AM,79.0,72.0,79,29.88,10.0,West,3.5,-,N/A,,Scattered Clouds,270,2013-06-14 08:53:00
4:53 AM,79.0,72.0,79,29.90,10.0,North,4.6,-,N/A,,Overcast,10,2013-06-14 09:53:00
5:03 AM,78.8,73.4,83,29.90,10.0,Calm,Calm,-,N/A,Thunderstorm,Overcast,0,2013-06-14 10:03:00
5:14 AM,77.0,73.4,89,29.91,2.5,NE,10.4,-,0.17,Rain,Heavy Rain,40,2013-06-14 10:14:00
5:18 AM,75.2,73.4,94,29.91,1.2,Variable,4.6,-,0.32,Rain-Thunderstorm,Heavy Thunderstorms and Rain,0,2013-06-14 10:18:00
5:24 AM,75.2,73.4,94,29.91,0.8,ESE,5.8,-,0.53,Rain-Thunderstorm,Heavy Thunderstorms and Rain,120,2013-06-14 10:24:00
5:27 AM,75.2,73.4,94,29.91,1.0,East,8.1,-,0.53,Rain-Thunderstorm,Heavy Thunderstorms and Rain,100,2013-06-14 10:27:00
5:33 AM,75.2,73.4,94,29.91,4.0,ESE,6.9,-,0.53,Rain-Thunderstorm,Light Thunderstorms and Rain,120,2013-06-14 10:33:00
5:53 AM,75.9,73.9,94,29.92,8.0,Calm,Calm,-,0.53,Thunderstorm,Thunderstorm,0,2013-06-14 10:53:00
6:18 AM,75.2,73.4,94,29.91,8.0,SW,3.5,-,0.00,,Overcast,220,2013-06-14 11:18:00
6:53 AM,75.9,73.9,94,29.91,6.0,Calm,Calm,-,0.00,,Scattered Clouds,0,2013-06-14 11:53:00
7:53 AM,79.0,75.9,90,29.92,7.0,WNW,3.5,-,N/A,,Clear,290,2013-06-14 12:53:00
8:53 AM,82.0,75.0,79,29.92,10.0,WNW,3.5,-,N/A,,Clear,300,2013-06-14 13:53:00
9:53 AM,84.0,75.9,76,29.92,10.0,Variable,3.5,-,N/A,,Partly Cloudy,0,2013-06-14 14:53:00
10:53 AM,86.0,75.9,72,29.91,10.0,North,11.5,-,N/A,,Mostly Cloudy,360,2013-06-14 15:53:00
11:08 AM,87.8,75.2,66,29.91,10.0,North,9.2,-,N/A,,Scattered Clouds,350,2013-06-14 16:08:00
11:53 AM,88.0,75.0,65,29.91,10.0,North,8.1,-,N/A,,Scattered Clouds,350,2013-06-14 16:53:00
12:04 PM,87.8,75.2,66,29.90,10.0,North,8.1,-,N/A,,Mostly Cloudy,350,2013-06-14 17:04:00
12:15 PM,89.6,75.2,62,29.90,10.0,North,10.4,-,N/A,,Scattered Clouds,360,2013-06-14 17:15:00
12:53 PM,90.0,75.0,61,29.90,10.0,North,6.9,-,N/A,,Scattered Clouds,360,2013-06-14 17:53:00
1:53 PM,91.0,73.9,57,29.89,10.0,WNW,8.1,-,N/A,,Partly Cloudy,300,2013-06-14 18:53:00
2:53 PM,93.0,73.0,52,29.89,10.0,NW,8.1,-,N/A,,Scattered Clouds,320,2013-06-14 19:53:00
3:53 PM,93.9,68.0,43,29.88,10.0,North,9.2,-,N/A,,Partly Cloudy,360,2013-06-14 20:53:00
4:53 PM,93.9,69.1,44,29.87,10.0,NNE,9.2,-,N/A,,Scattered Clouds,30,2013-06-14 21:53:00
5:53 PM,91.9,66.0,42,29.87,10.0,North,6.9,-,N/A,,Clear,350,2013-06-14 22:53:00
6:53 PM,89.1,66.9,48,29.88,10.0,North,5.8,-,N/A,,Clear,360,2013-06-14 23:53:00
7:53 PM,82.0,68.0,62,29.90,10.0,NNE,4.6,-,N/A,,Clear,20,2013-06-15 00:53:00
8:53 PM,78.1,69.1,74,29.92,10.0,Calm,Calm,-,N/A,,Clear,0,2013-06-15 01:53:00
9:53 PM,75.0,69.1,82,29.93,10.0,North,3.5,-,N/A,,Clear,360,2013-06-15 02:53:00
10:53 PM,75.0,68.0,79,29.95,10.0,NNE,5.8,-,N/A,,Clear,20,2013-06-15 03:53:00
11:53 PM,73.0,66.9,81,29.96,10.0,Calm,Calm,-,N/A,,Clear,0,2013-06-15 04:53:00